,,,PA_Meas_PMT16A,,PR_Meas_QMR101_102,,RH_Meas_QMH101,,SR_Meas_QMS101,,TA_Meas_QMH101,,GenWind,,GenWind,
date,time,status,PA,status,PR,status,RH,status,SR,status,TA,status,DirAvg,status,SpdAvg,
2008-07-08, 00:00:04,VALID,1008.81,VALID,0,VALID,92.6224,VALID,0,VALID,23.9863,VALID,81,VALID,0.242969,
2008-07-08, 00:01:04,VALID,1008.75,VALID,0,VALID,92.6682,VALID,0,VALID,23.9668,VALID,81,VALID,0.194531,
2008-07-08, 00:02:04,VALID,1008.77,VALID,0,VALID,92.7292,VALID,0,VALID,23.9473,VALID,81,VALID,0.169922,
2008-07-08, 00:03:04,VALID,1008.76,VALID,0,VALID,92.7749,VALID,0,VALID,23.9278,VALID,81,VALID,0,
2008-07-08, 00:04:04,VALID,1008.74,VALID,0,VALID,92.8817,VALID,0,VALID,23.8871,VALID,80,VALID,0,
2008-07-08, 00:05:04,VALID,1008.77,VALID,0,VALID,92.9656,VALID,0,VALID,23.8694,VALID,80,VALID,0,
2008-07-08, 00:06:04,VALID,1008.76,VALID,0,VALID,93.0723,VALID,0.105969,VALID,23.8499,VALID,80,VALID,0,
2008-07-08, 00:07:04,VALID,1008.76,VALID,0,VALID,93.1562,VALID,0,VALID,23.8286,VALID,80,VALID,0,
2008-07-08, 00:08:04,VALID,1008.72,VALID,0,VALID,93.2706,VALID,0.105969,VALID,23.8304,VALID,80,VALID,0,
2008-07-08, 00:09:04,VALID,1008.72,VALID,0,VALID,93.3697,VALID,0.105969,VALID,23.8091,VALID,80,VALID,0,
2008-07-08, 00:10:04,VALID,1008.7,VALID,0,VALID,93.4689,VALID,0,VALID,23.7896,VALID,80,VALID,0,
2008-07-08, 00:11:04,VALID,1008.73,VALID,0,VALID,93.5985,VALID,0,VALID,23.7896,VALID,80,VALID,0,
2008-07-08, 00:12:04,VALID,1008.74,VALID,0,VALID,93.6595,VALID,0,VALID,23.7896,VALID,80,VALID,0,
2008-07-08, 00:13:04,VALID,1008.73,VALID,0,VALID,93.5909,VALID,0,VALID,23.7914,VALID,80,VALID,0,
2008-07-08, 00:14:04,VALID,1008.73,VALID,0,VALID,93.4841,VALID,0.105969,VALID,23.7507,VALID,80,VALID,0,
2008-07-08, 00:15:04,VALID,1008.74,VALID,0,VALID,93.5832,VALID,0,VALID,23.7507,VALID,80,VALID,0,
2008-07-08, 00:16:04,VALID,1008.75,VALID,0,VALID,93.5909,VALID,0.105969,VALID,23.7507,VALID,80,VALID,0,
2008-07-08, 00:17:04,VALID,1008.73,VALID,0,VALID,93.5604,VALID,0,VALID,23.7117,VALID,80,VALID,0,
2008-07-08, 00:18:04,VALID,1008.69,VALID,0,VALID,93.5451,VALID,0,VALID,23.7312,VALID,80,VALID,0,
2008-07-08, 00:19:04,VALID,1008.66,VALID,0,VALID,93.6137,VALID,0,VALID,23.7117,VALID,80,VALID,0,
2008-07-08, 00:20:04,VALID,1008.63,VALID,0,VALID,93.629,VALID,0.105969,VALID,23.6922,VALID,80,VALID,0,
2008-07-08, 00:21:04,VALID,1008.59,VALID,0,VALID,93.7205,VALID,0,VALID,23.7117,VALID,80,VALID,0,
2008-07-08, 00:22:04,VALID,1008.58,VALID,0,VALID,93.7586,VALID,0,VALID,23.6922,VALID,80,VALID,0,
2008-07-08, 00:23:04,VALID,1008.58,VALID,0,VALID,93.8273,VALID,0,VALID,23.6922,VALID,80,VALID,0,
2008-07-08, 00:24:04,VALID,1008.58,VALID,0,VALID,93.8654,VALID,0,VALID,23.6922,VALID,80,VALID,0.0738281,
2008-07-08, 00:25:04,VALID,1008.58,VALID,0,VALID,93.9417,VALID,0.105969,VALID,23.6922,VALID,80,VALID,0.288281,
2008-07-08, 00:26:04,VALID,1008.6,VALID,0,VALID,93.9417,VALID,0.105969,VALID,23.694,VALID,80,VALID,0.214844,
2008-07-08, 00:27:04,VALID,1008.62,VALID,0,VALID,93.9188,VALID,0.105969,VALID,23.6727,VALID,80,VALID,0.190234,
2008-07-08, 00:28:04,VALID,1008.63,VALID,0,VALID,93.8807,VALID,0,VALID,23.6745,VALID,80,VALID,0.247656,
2008-07-08, 00:29:04,VALID,1008.66,VALID,0,VALID,93.9035,VALID,0.105969,VALID,23.6532,VALID,71,VALID,0.285937,
2008-07-08, 00:30:04,VALID,1008.65,VALID,0,VALID,93.9188,VALID,0,VALID,23.6532,VALID,40,VALID,0.251563,
2008-07-08, 00:31:04,VALID,1008.67,VALID,0,VALID,93.9798,VALID,0.105969,VALID,23.6532,VALID,26,VALID,0.454297,
2008-07-08, 00:32:04,VALID,1008.69,VALID,0,VALID,93.9874,VALID,0.105969,VALID,23.6338,VALID,46,VALID,0.276563,
2008-07-08, 00:33:04,VALID,1008.7,VALID,0,VALID,93.934,VALID,0,VALID,23.6143,VALID,46,VALID,0.223438,
2008-07-08, 00:34:04,VALID,1008.69,VALID,0,VALID,93.995,VALID,0,VALID,23.6143,VALID,322,VALID,0.394922,
2008-07-08, 00:35:04,VALID,1008.73,VALID,0,VALID,93.9798,VALID,0,VALID,23.6143,VALID,322,VALID,0.334766,
2008-07-08, 00:36:04,VALID,1008.72,VALID,0,VALID,93.8883,VALID,0.105969,VALID,23.6161,VALID,322,VALID,0.372266,
2008-07-08, 00:37:04,VALID,1008.74,VALID,0,VALID,93.9035,VALID,0,VALID,23.5948,VALID,322,VALID,0.450391,
2008-07-08, 00:38:04,VALID,1008.72,VALID,0,VALID,93.9264,VALID,0.105969,VALID,23.6161,VALID,322,VALID,0.389844,
2008-07-08, 00:39:04,VALID,1008.72,VALID,0,VALID,93.934,VALID,0,VALID,23.5753,VALID,322,VALID,0.396484,
2008-07-08, 00:40:04,VALID,1008.71,VALID,0,VALID,94.0103,VALID,0,VALID,23.5771,VALID,322,VALID,0.426172,
2008-07-08, 00:41:04,VALID,1008.72,VALID,0,VALID,94.0637,VALID,0.105969,VALID,23.5966,VALID,322,VALID,0.418359,
2008-07-08, 00:42:04,VALID,1008.71,VALID,0,VALID,94.0713,VALID,0.105969,VALID,23.5753,VALID,322,VALID,0.364062,
2008-07-08, 00:43:04,VALID,1008.69,VALID,0,VALID,94.1323,VALID,0,VALID,23.5966,VALID,322,VALID,0.457031,
2008-07-08, 00:44:04,VALID,1008.7,VALID,0,VALID,94.1094,VALID,0,VALID,23.5966,VALID,329,VALID,0.495703,
2008-07-08, 00:45:04,VALID,1008.67,VALID,0,VALID,94.2162,VALID,0,VALID,23.5966,VALID,340,VALID,0.442187,
2008-07-08, 00:46:04,VALID,1008.72,VALID,0,VALID,94.2619,VALID,0,VALID,23.5753,VALID,340,VALID,0.348047,
2008-07-08, 00:47:04,VALID,1008.72,VALID,0,VALID,94.3382,VALID,0,VALID,23.5966,VALID,340,VALID,0.290625,
2008-07-08, 00:48:04,VALID,1008.74,VALID,0,VALID,94.3229,VALID,0.105969,VALID,23.5558,VALID,340,VALID,0.211719,
2008-07-08, 00:49:04,VALID,1008.73,VALID,0,VALID,94.3534,VALID,0,VALID,23.5753,VALID,340,VALID,0.299609,
2008-07-08, 00:50:04,VALID,1008.75,VALID,0,VALID,94.3458,VALID,0,VALID,23.5753,VALID,340,VALID,0.376953,
2008-07-08, 00:51:04,VALID,1008.78,VALID,0,VALID,94.3458,VALID,0,VALID,23.5753,VALID,340,VALID,0.312891,
2008-07-08, 00:52:04,VALID,1008.81,VALID,0,VALID,94.3611,VALID,0.105969,VALID,23.5753,VALID,346,VALID,0.475781,
2008-07-08, 00:53:04,VALID,1008.82,VALID,0,VALID,94.4145,VALID,0,VALID,23.6356,VALID,5,VALID,0.514063,
2008-07-08, 00:54:04,VALID,1008.83,VALID,0,VALID,94.3611,VALID,0,VALID,23.5948,VALID,6,VALID,0.426953,
2008-07-08, 00:55:04,VALID,1008.84,VALID,0,VALID,94.3458,VALID,0,VALID,23.5753,VALID,5,VALID,0.444922,
2008-07-08, 00:56:04,VALID,1008.85,VALID,0,VALID,94.3534,VALID,0.105969,VALID,23.5753,VALID,360,VALID,0.443359,
2008-07-08, 00:57:04,VALID,1008.88,VALID,0,VALID,94.3763,VALID,0.105969,VALID,23.655,VALID,1,VALID,0.439453,
2008-07-08, 00:58:04,VALID,1008.85,VALID,0,VALID,94.3458,VALID,0,VALID,23.6143,VALID,8,VALID,0.383203,
2008-07-08, 00:59:04,VALID,1008.85,VALID,0,VALID,94.3687,VALID,0,VALID,23.6143,VALID,15,VALID,0.454688,
2008-07-08, 01:00:04,VALID,1008.8,VALID,0,VALID,94.3687,VALID,0,VALID,23.6532,VALID,352,VALID,0.196484,
2008-07-08, 01:01:04,VALID,1008.78,VALID,0,VALID,94.3534,VALID,0,VALID,23.6727,VALID,352,VALID,0.133594,
2008-07-08, 01:02:04,VALID,1008.74,VALID,0,VALID,94.3687,VALID,0,VALID,23.6727,VALID,352,VALID,0.135547,
2008-07-08, 01:03:04,VALID,1008.72,VALID,0,VALID,94.3229,VALID,0,VALID,23.6727,VALID,352,VALID,0.180469,
2008-07-08, 01:04:04,VALID,1008.74,VALID,0,VALID,94.2696,VALID,0.105969,VALID,23.694,VALID,353,VALID,0.192578,
2008-07-08, 01:05:04,VALID,1008.69,VALID,0,VALID,94.2238,VALID,0,VALID,23.6922,VALID,353,VALID,0.171484,
2008-07-08, 01:06:04,VALID,1008.7,VALID,0,VALID,94.1933,VALID,0,VALID,23.7135,VALID,353,VALID,0,
2008-07-08, 01:07:04,VALID,1008.67,VALID,0,VALID,94.2314,VALID,0.105969,VALID,23.7117,VALID,353,VALID,0,
2008-07-08, 01:08:04,VALID,1008.66,VALID,0,VALID,94.3001,VALID,0,VALID,23.7117,VALID,353,VALID,0,
2008-07-08, 01:09:04,VALID,1008.65,VALID,0,VALID,94.3153,VALID,0.105969,VALID,23.7312,VALID,353,VALID,0,
2008-07-08, 01:10:04,VALID,1008.64,VALID,0,VALID,94.2772,VALID,0,VALID,23.772,VALID,353,VALID,0,
2008-07-08, 01:11:04,VALID,1008.62,VALID,0,VALID,94.2162,VALID,0,VALID,23.7507,VALID,353,VALID,0,
2008-07-08, 01:12:04,VALID,1008.61,VALID,0,VALID,94.1857,VALID,0,VALID,23.7507,VALID,353,VALID,0,
2008-07-08, 01:13:04,VALID,1008.62,VALID,0,VALID,94.1628,VALID,0,VALID,23.7914,VALID,353,VALID,0,
2008-07-08, 01:14:04,VALID,1008.62,VALID,0,VALID,94.1476,VALID,0,VALID,23.8091,VALID,353,VALID,0,
2008-07-08, 01:15:04,VALID,1008.62,VALID,0,VALID,94.0713,VALID,0,VALID,23.7914,VALID,353,VALID,0,
2008-07-08, 01:16:04,VALID,1008.61,VALID,0,VALID,94.0027,VALID,0,VALID,23.8091,VALID,353,VALID,0,
2008-07-08, 01:17:04,VALID,1008.58,VALID,0,VALID,93.9035,VALID,0,VALID,23.8091,VALID,353,VALID,0,
2008-07-08, 01:18:04,VALID,1008.54,VALID,0,VALID,93.9035,VALID,0,VALID,23.8286,VALID,353,VALID,0.3,
2008-07-08, 01:19:04,VALID,1008.52,VALID,0,VALID,93.934,VALID,0,VALID,23.8481,VALID,37,VALID,0.443359,
2008-07-08, 01:20:04,VALID,1008.49,VALID,0,VALID,93.7968,VALID,0,VALID,23.8676,VALID,65,VALID,0.494922,
2008-07-08, 01:21:04,VALID,1008.46,VALID,0,VALID,93.7815,VALID,0,VALID,23.8871,VALID,68,VALID,0.531641,
2008-07-08, 01:22:04,VALID,1008.45,VALID,0,VALID,93.7205,VALID,0,VALID,23.8871,VALID,71,VALID,0.636328,
2008-07-08, 01:23:04,VALID,1008.43,VALID,0,VALID,93.6442,VALID,0,VALID,23.9084,VALID,72,VALID,0.623438,
2008-07-08, 01:24:04,VALID,1008.43,VALID,0,VALID,93.5375,VALID,0,VALID,23.9065,VALID,69,VALID,0.817578,
2008-07-08, 01:25:04,VALID,1008.42,VALID,0,VALID,93.4002,VALID,0,VALID,23.8676,VALID,72,VALID,0.930859,
2008-07-08, 01:26:04,VALID,1008.42,VALID,0,VALID,93.3316,VALID,0,VALID,23.8871,VALID,73,VALID,0.635938,
2008-07-08, 01:27:04,VALID,1008.4,VALID,0,VALID,93.2858,VALID,0.105969,VALID,23.8676,VALID,72,VALID,0.543359,
2008-07-08, 01:28:04,VALID,1008.4,VALID,0,VALID,93.2401,VALID,0,VALID,23.8694,VALID,70,VALID,0.225,
2008-07-08, 01:29:04,VALID,1008.4,VALID,0,VALID,93.263,VALID,0,VALID,23.8481,VALID,70,VALID,0.342187,
2008-07-08, 01:30:04,VALID,1008.4,VALID,0,VALID,93.2706,VALID,0,VALID,23.8091,VALID,70,VALID,0.319531,
2008-07-08, 01:31:04,VALID,1008.4,VALID,0,VALID,93.2935,VALID,0,VALID,23.8091,VALID,70,VALID,0.0921875,
2008-07-08, 01:32:04,VALID,1008.38,VALID,0,VALID,93.3545,VALID,0,VALID,23.7896,VALID,70,VALID,0,
2008-07-08, 01:33:04,VALID,1008.36,VALID,0,VALID,93.4231,VALID,0,VALID,23.7896,VALID,70,VALID,0,
2008-07-08, 01:34:04,VALID,1008.31,VALID,0,VALID,93.385,VALID,0.105969,VALID,23.7701,VALID,70,VALID,0,
2008-07-08, 01:35:04,VALID,1008.31,VALID,0,VALID,93.3773,VALID,0,VALID,23.7507,VALID,70,VALID,0,
2008-07-08, 01:36:04,VALID,1008.28,VALID,0,VALID,93.4155,VALID,0,VALID,23.7117,VALID,70,VALID,0,
2008-07-08, 01:37:04,VALID,1008.26,VALID,0,VALID,93.4841,VALID,0,VALID,23.6922,VALID,70,VALID,0,
2008-07-08, 01:38:04,VALID,1008.21,VALID,0,VALID,93.5756,VALID,0,VALID,23.694,VALID,70,VALID,0,
2008-07-08, 01:39:04,VALID,1008.19,VALID,0,VALID,93.5909,VALID,0,VALID,23.6338,VALID,70,VALID,0,
2008-07-08, 01:40:04,VALID,1008.17,VALID,0,VALID,93.6824,VALID,0.105969,VALID,23.6532,VALID,70,VALID,0,
2008-07-08, 01:41:04,VALID,1008.18,VALID,0,VALID,93.7205,VALID,0.105969,VALID,23.6143,VALID,70,VALID,0,
2008-07-08, 01:42:04,VALID,1008.13,VALID,0,VALID,93.873,VALID,0,VALID,23.6143,VALID,70,VALID,0,
2008-07-08, 01:43:04,VALID,1008.12,VALID,0,VALID,93.8807,VALID,0,VALID,23.6161,VALID,70,VALID,0,
2008-07-08, 01:44:04,VALID,1008.12,VALID,0,VALID,93.8654,VALID,0.105969,VALID,23.5948,VALID,70,VALID,0,
2008-07-08, 01:45:04,VALID,1008.06,VALID,0,VALID,93.9722,VALID,0.105969,VALID,23.5753,VALID,70,VALID,0,
2008-07-08, 01:46:04,VALID,1008.06,VALID,0,VALID,93.9264,VALID,0.105969,VALID,23.5558,VALID,70,VALID,0.0980469,
2008-07-08, 01:47:04,VALID,1008.05,VALID,0,VALID,93.9798,VALID,0,VALID,23.5558,VALID,70,VALID,0.349609,
2008-07-08, 01:48:04,VALID,1008.06,VALID,0,VALID,94.0713,VALID,0,VALID,23.5558,VALID,70,VALID,0.275,
2008-07-08, 01:49:04,VALID,1008.03,VALID,0,VALID,94.0942,VALID,0.105969,VALID,23.5363,VALID,70,VALID,0.313281,
2008-07-08, 01:50:04,VALID,1008.05,VALID,0,VALID,94.1247,VALID,0,VALID,23.5169,VALID,70,VALID,0.369531,
2008-07-08, 01:51:04,VALID,1008.02,VALID,0,VALID,94.1781,VALID,0.105969,VALID,23.4974,VALID,70,VALID,0.170703,
2008-07-08, 01:52:04,VALID,1008.02,VALID,0,VALID,94.2162,VALID,0,VALID,23.4779,VALID,70,VALID,0.103906,
2008-07-08, 01:53:04,VALID,1007.99,VALID,0,VALID,94.2543,VALID,0,VALID,23.4992,VALID,70,VALID,0,
2008-07-08, 01:54:04,VALID,1007.98,VALID,0,VALID,94.2619,VALID,0,VALID,23.4797,VALID,70,VALID,0.246094,
2008-07-08, 01:55:04,VALID,1007.99,VALID,0,VALID,94.3153,VALID,0,VALID,23.4602,VALID,70,VALID,0.242969,
2008-07-08, 01:56:04,VALID,1007.99,VALID,0,VALID,94.3763,VALID,0,VALID,23.4992,VALID,70,VALID,0.176953,
2008-07-08, 01:57:04,VALID,1007.96,VALID,0,VALID,94.3916,VALID,0,VALID,23.4797,VALID,69,VALID,0.1875,
2008-07-08, 01:58:04,VALID,1007.98,VALID,0,VALID,94.4373,VALID,0,VALID,23.4797,VALID,69,VALID,0.217969,
2008-07-08, 01:59:04,VALID,1008.01,VALID,0,VALID,94.4373,VALID,0,VALID,23.4779,VALID,349,VALID,0.340234,
2008-07-08, 02:00:04,VALID,1008.04,VALID,0,VALID,94.4068,VALID,0.105969,VALID,23.4974,VALID,350,VALID,0.207813,
2008-07-08, 02:01:04,VALID,1008.03,VALID,0,VALID,94.3839,VALID,0.105969,VALID,23.4389,VALID,350,VALID,0.1,
2008-07-08, 02:02:04,VALID,1008.04,VALID,0,VALID,94.3916,VALID,0,VALID,23.4389,VALID,350,VALID,0.142188,
2008-07-08, 02:03:04,VALID,1008.07,VALID,0,VALID,94.3611,VALID,0,VALID,23.4194,VALID,350,VALID,0.165234,
2008-07-08, 02:04:04,VALID,1008.07,VALID,0,VALID,94.3534,VALID,0.105969,VALID,23.4,VALID,350,VALID,0.193359,
2008-07-08, 02:05:04,VALID,1008.02,VALID,0,VALID,94.3458,VALID,0,VALID,23.4017,VALID,350,VALID,0.194922,
2008-07-08, 02:06:04,VALID,1008.01,VALID,0,VALID,94.3687,VALID,0,VALID,23.3805,VALID,350,VALID,0.166797,
2008-07-08, 02:07:04,VALID,1008.01,VALID,0,VALID,94.4373,VALID,0.105969,VALID,23.4,VALID,350,VALID,0.272656,
2008-07-08, 02:08:04,VALID,1008.01,VALID,0,VALID,94.5822,VALID,0,VALID,23.4194,VALID,349,VALID,0.25625,
2008-07-08, 02:09:04,VALID,1008.01,VALID,0,VALID,94.6203,VALID,0,VALID,23.4194,VALID,349,VALID,0.301562,
2008-07-08, 02:10:04,VALID,1008,VALID,0,VALID,94.6966,VALID,0.105969,VALID,23.4584,VALID,347,VALID,0.420312,
2008-07-08, 02:11:04,VALID,1008.02,VALID,0,VALID,94.7271,VALID,0,VALID,23.4584,VALID,347,VALID,0.210938,
2008-07-08, 02:12:04,VALID,1007.98,VALID,0,VALID,94.6661,VALID,0,VALID,23.4584,VALID,347,VALID,0.108594,
2008-07-08, 02:13:04,VALID,1007.97,VALID,0,VALID,94.6051,VALID,0,VALID,23.4389,VALID,347,VALID,0.0242187,
2008-07-08, 02:14:04,VALID,1007.97,VALID,0,VALID,94.5441,VALID,0,VALID,23.4389,VALID,347,VALID,0.123438,
2008-07-08, 02:15:04,VALID,1007.96,VALID,0,VALID,94.5441,VALID,0.105969,VALID,23.4389,VALID,347,VALID,0.134766,
2008-07-08, 02:16:04,VALID,1007.93,VALID,0,VALID,94.5517,VALID,0,VALID,23.4389,VALID,347,VALID,0,
2008-07-08, 02:17:04,VALID,1007.94,VALID,0,VALID,94.567,VALID,0,VALID,23.4389,VALID,347,VALID,0,
2008-07-08, 02:18:04,VALID,1007.93,VALID,0,VALID,94.6051,VALID,0.105969,VALID,23.4389,VALID,347,VALID,0.153125,
2008-07-08, 02:19:04,VALID,1007.93,VALID,0,VALID,94.6432,VALID,0.105969,VALID,23.4389,VALID,347,VALID,0.0046875,
2008-07-08, 02:20:04,VALID,1007.92,VALID,0,VALID,94.5212,VALID,0.105969,VALID,23.4194,VALID,347,VALID,0.173047,
2008-07-08, 02:21:04,VALID,1007.91,VALID,0,VALID,94.4755,VALID,0,VALID,23.4,VALID,347,VALID,0.0832031,
2008-07-08, 02:22:04,VALID,1007.92,VALID,0,VALID,94.506,VALID,0,VALID,23.3805,VALID,347,VALID,0.198047,
2008-07-08, 02:23:04,VALID,1007.93,VALID,0,VALID,94.506,VALID,0.105969,VALID,23.3805,VALID,347,VALID,0.110937,
2008-07-08, 02:24:04,VALID,1007.9,VALID,0,VALID,94.5365,VALID,0.105969,VALID,23.3805,VALID,347,VALID,0,
2008-07-08, 02:25:04,VALID,1007.88,VALID,0,VALID,94.567,VALID,0.105969,VALID,23.4,VALID,347,VALID,0,
2008-07-08, 02:26:04,VALID,1007.89,VALID,0,VALID,94.5822,VALID,0.105969,VALID,23.3805,VALID,347,VALID,0,
2008-07-08, 02:27:04,VALID,1007.88,VALID,0,VALID,94.6051,VALID,0,VALID,23.361,VALID,347,VALID,0,
2008-07-08, 02:28:04,VALID,1007.9,VALID,0,VALID,94.6356,VALID,0,VALID,23.361,VALID,347,VALID,0,
2008-07-08, 02:29:04,VALID,1007.9,VALID,0,VALID,94.6661,VALID,0,VALID,23.3628,VALID,347,VALID,0,
2008-07-08, 02:30:04,VALID,1007.92,VALID,0,VALID,94.6814,VALID,0,VALID,23.384,VALID,347,VALID,0,
2008-07-08, 02:31:04,VALID,1007.92,VALID,0,VALID,94.6814,VALID,0,VALID,23.3433,VALID,347,VALID,0,
2008-07-08, 02:32:04,VALID,1007.95,VALID,0,VALID,94.6966,VALID,0,VALID,23.3433,VALID,347,VALID,0,
2008-07-08, 02:33:04,VALID,1007.93,VALID,0,VALID,94.6966,VALID,0,VALID,23.3433,VALID,347,VALID,0,
2008-07-08, 02:34:04,VALID,1007.94,VALID,0,VALID,94.7729,VALID,0,VALID,23.3628,VALID,347,VALID,0,
2008-07-08, 02:35:04,VALID,1007.92,VALID,0,VALID,94.811,VALID,0,VALID,23.3628,VALID,347,VALID,0.213281,
2008-07-08, 02:36:04,VALID,1007.95,VALID,0,VALID,94.7957,VALID,0,VALID,23.3433,VALID,347,VALID,0.15625,
2008-07-08, 02:37:04,VALID,1007.97,VALID,0,VALID,94.7805,VALID,0,VALID,23.3433,VALID,347,VALID,0.208203,
2008-07-08, 02:38:04,VALID,1007.97,VALID,0,VALID,94.8262,VALID,0,VALID,23.3433,VALID,347,VALID,0.142969,
2008-07-08, 02:39:04,VALID,1007.98,VALID,0,VALID,94.8644,VALID,0,VALID,23.3628,VALID,347,VALID,0.152734,
2008-07-08, 02:40:04,VALID,1007.98,VALID,0,VALID,94.872,VALID,0,VALID,23.423,VALID,347,VALID,0.164063,
2008-07-08, 02:41:04,VALID,1007.97,VALID,0,VALID,94.8796,VALID,0,VALID,23.3433,VALID,347,VALID,0.116797,
2008-07-08, 02:42:04,VALID,1008,VALID,0,VALID,94.9178,VALID,0,VALID,23.4017,VALID,347,VALID,0.116797,
2008-07-08, 02:43:04,VALID,1008.01,VALID,0,VALID,94.9559,VALID,0,VALID,23.3823,VALID,347,VALID,0.166797,
2008-07-08, 02:44:05,VALID,1008,VALID,0,VALID,94.9254,VALID,0,VALID,23.3805,VALID,347,VALID,0.29375,
2008-07-08, 02:45:05,VALID,1007.98,VALID,0,VALID,94.8796,VALID,0.105969,VALID,23.361,VALID,347,VALID,0.227344,
2008-07-08, 02:46:05,VALID,1007.99,VALID,0,VALID,94.8415,VALID,0.105969,VALID,23.361,VALID,347,VALID,0.159375,
2008-07-08, 02:47:05,VALID,1008,VALID,0,VALID,94.8568,VALID,0,VALID,23.3823,VALID,347,VALID,0.161328,
2008-07-08, 02:48:05,VALID,1008.02,VALID,0,VALID,94.9101,VALID,0.105969,VALID,23.3805,VALID,347,VALID,0.139062,
2008-07-08, 02:49:05,VALID,1008.04,VALID,0,VALID,94.9254,VALID,0,VALID,23.3805,VALID,347,VALID,0,
2008-07-08, 02:50:05,VALID,1008.05,VALID,0,VALID,94.9178,VALID,0.105969,VALID,23.4,VALID,347,VALID,0,
2008-07-08, 02:51:05,VALID,1008.1,VALID,0,VALID,94.8873,VALID,0.105969,VALID,23.3805,VALID,347,VALID,0,
2008-07-08, 02:52:05,VALID,1008.08,VALID,0,VALID,94.8491,VALID,0,VALID,23.3805,VALID,347,VALID,0,
2008-07-08, 02:53:05,VALID,1008.11,VALID,0,VALID,94.7729,VALID,0,VALID,23.361,VALID,347,VALID,0,
2008-07-08, 02:54:05,VALID,1008.09,VALID,0,VALID,94.7195,VALID,0,VALID,23.322,VALID,347,VALID,0,
2008-07-08, 02:55:05,VALID,1008.06,VALID,0,VALID,94.7119,VALID,0,VALID,23.3433,VALID,347,VALID,0,
2008-07-08, 02:56:05,VALID,1008.06,VALID,0,VALID,94.7195,VALID,0,VALID,23.3238,VALID,347,VALID,0,
2008-07-08, 02:57:05,VALID,1008.04,VALID,0,VALID,94.7652,VALID,0,VALID,23.3433,VALID,347,VALID,0.234375,
2008-07-08, 02:58:05,VALID,1008.06,VALID,0,VALID,94.811,VALID,0,VALID,23.322,VALID,347,VALID,0.325391,
2008-07-08, 02:59:05,VALID,1008.04,VALID,0,VALID,94.8262,VALID,0,VALID,23.322,VALID,347,VALID,0.183203,
2008-07-08, 03:00:05,VALID,1008.06,VALID,0,VALID,94.8415,VALID,0.105969,VALID,23.322,VALID,347,VALID,0.195313,
2008-07-08, 03:01:05,VALID,1008.08,VALID,0,VALID,94.8186,VALID,0,VALID,23.3238,VALID,347,VALID,0.122656,
2008-07-08, 03:02:05,VALID,1008.08,VALID,0,VALID,94.8034,VALID,0,VALID,23.3026,VALID,347,VALID,0,
2008-07-08, 03:03:05,VALID,1008.11,VALID,0,VALID,94.8034,VALID,0,VALID,23.3026,VALID,347,VALID,0,
2008-07-08, 03:04:05,VALID,1008.12,VALID,0,VALID,94.7729,VALID,0,VALID,23.322,VALID,347,VALID,0,
2008-07-08, 03:05:05,VALID,1008.11,VALID,0,VALID,94.7805,VALID,0.105969,VALID,23.3026,VALID,347,VALID,0,
2008-07-08, 03:06:05,VALID,1008.12,VALID,0,VALID,94.7805,VALID,0,VALID,23.3043,VALID,347,VALID,0,
2008-07-08, 03:07:05,VALID,1008.11,VALID,0,VALID,94.811,VALID,0,VALID,23.3026,VALID,347,VALID,0.175781,
2008-07-08, 03:08:05,VALID,1008.1,VALID,0,VALID,94.8491,VALID,0.105969,VALID,23.322,VALID,347,VALID,0.254687,
2008-07-08, 03:09:05,VALID,1008.11,VALID,0,VALID,94.8644,VALID,0.105969,VALID,23.322,VALID,347,VALID,0.266406,
2008-07-08, 03:10:05,VALID,1008.13,VALID,0,VALID,94.8949,VALID,0.105969,VALID,23.3415,VALID,347,VALID,0.355859,
2008-07-08, 03:11:05,VALID,1008.11,VALID,0,VALID,94.9406,VALID,0.105969,VALID,23.361,VALID,32,VALID,0.370703,
2008-07-08, 03:12:05,VALID,1008.07,VALID,0,VALID,94.9559,VALID,0,VALID,23.3805,VALID,41,VALID,0.327734,
2008-07-08, 03:13:05,VALID,1008.07,VALID,0,VALID,94.9406,VALID,0,VALID,23.3805,VALID,41,VALID,0.278906,
2008-07-08, 03:14:05,VALID,1008.06,VALID,0,VALID,94.9101,VALID,0,VALID,23.4,VALID,41,VALID,0.23125,
2008-07-08, 03:15:05,VALID,1008.05,VALID,0,VALID,94.9025,VALID,0,VALID,23.4,VALID,41,VALID,0.232812,
2008-07-08, 03:16:05,VALID,1008.03,VALID,0,VALID,94.9101,VALID,0,VALID,23.4194,VALID,41,VALID,0.352734,
2008-07-08, 03:17:05,VALID,1008.05,VALID,0,VALID,94.8873,VALID,0,VALID,23.4,VALID,41,VALID,0.252344,
2008-07-08, 03:18:05,VALID,1008.01,VALID,0,VALID,94.8415,VALID,0.105969,VALID,23.4389,VALID,41,VALID,0.202734,
2008-07-08, 03:19:05,VALID,1008.05,VALID,0,VALID,94.7652,VALID,0,VALID,23.4194,VALID,41,VALID,0.151172,
2008-07-08, 03:20:05,VALID,1008.03,VALID,0,VALID,94.6966,VALID,0,VALID,23.3805,VALID,41,VALID,0.0761719,
2008-07-08, 03:21:05,VALID,1008.04,VALID,0,VALID,94.6127,VALID,0,VALID,23.361,VALID,41,VALID,0,
2008-07-08, 03:22:05,VALID,1008.03,VALID,0,VALID,94.628,VALID,0.105969,VALID,23.361,VALID,41,VALID,0.00429688,
2008-07-08, 03:23:05,VALID,1008.06,VALID,0,VALID,94.6203,VALID,0.105969,VALID,23.361,VALID,41,VALID,0.0515625,
2008-07-08, 03:24:05,VALID,1008.05,VALID,0,VALID,94.6127,VALID,0,VALID,23.3415,VALID,41,VALID,0.244531,
2008-07-08, 03:25:05,VALID,1008.07,VALID,0,VALID,94.5975,VALID,0,VALID,23.322,VALID,41,VALID,0.296484,
2008-07-08, 03:26:05,VALID,1008.1,VALID,0,VALID,94.6127,VALID,0,VALID,23.3433,VALID,41,VALID,0.258203,
2008-07-08, 03:27:05,VALID,1008.12,VALID,0,VALID,94.6432,VALID,0,VALID,23.3433,VALID,41,VALID,0.365234,
2008-07-08, 03:28:05,VALID,1008.14,VALID,0,VALID,94.6432,VALID,0,VALID,23.322,VALID,41,VALID,0.420312,
2008-07-08, 03:29:05,VALID,1008.13,VALID,0,VALID,94.628,VALID,0.105969,VALID,23.322,VALID,41,VALID,0.370313,
2008-07-08, 03:30:05,VALID,1008.16,VALID,0,VALID,94.5746,VALID,0,VALID,23.3026,VALID,41,VALID,0.402734,
2008-07-08, 03:31:05,VALID,1008.15,VALID,0,VALID,94.5441,VALID,0,VALID,23.2831,VALID,41,VALID,0.394922,
2008-07-08, 03:32:05,VALID,1008.15,VALID,0,VALID,94.5288,VALID,0,VALID,23.2636,VALID,41,VALID,0.357031,
2008-07-08, 03:33:05,VALID,1008.13,VALID,0,VALID,94.5441,VALID,0.105969,VALID,23.2636,VALID,52,VALID,0.424219,
2008-07-08, 03:34:05,VALID,1008.12,VALID,0,VALID,94.689,VALID,0.105969,VALID,23.2636,VALID,76,VALID,0.432813,
2008-07-08, 03:35:05,VALID,1008.13,VALID,0,VALID,94.6966,VALID,0.105969,VALID,23.3043,VALID,76,VALID,0.429297,
2008-07-08, 03:36:05,VALID,1008.11,VALID,0,VALID,94.7195,VALID,0.105969,VALID,23.2831,VALID,76,VALID,0.427344,
2008-07-08, 03:37:05,VALID,1008.12,VALID,0,VALID,94.6966,VALID,0.105969,VALID,23.2831,VALID,76,VALID,0.356641,
2008-07-08, 03:38:05,VALID,1008.16,VALID,0,VALID,94.6585,VALID,0.105969,VALID,23.2831,VALID,72,VALID,0.255859,
2008-07-08, 03:39:05,VALID,1008.18,VALID,0,VALID,94.6432,VALID,0.105969,VALID,23.2636,VALID,72,VALID,0.192578,
2008-07-08, 03:40:05,VALID,1008.24,VALID,0,VALID,94.6127,VALID,0,VALID,23.2636,VALID,72,VALID,0.146094,
2008-07-08, 03:41:05,VALID,1008.26,VALID,0,VALID,94.628,VALID,0,VALID,23.2441,VALID,72,VALID,0.239453,
2008-07-08, 03:42:05,VALID,1008.3,VALID,0,VALID,94.6432,VALID,0.105969,VALID,23.2831,VALID,72,VALID,0.137109,
2008-07-08, 03:43:05,VALID,1008.32,VALID,0,VALID,94.6127,VALID,0.105969,VALID,23.2636,VALID,72,VALID,0.071875,
2008-07-08, 03:44:05,VALID,1008.33,VALID,0,VALID,94.6051,VALID,0.105969,VALID,23.2441,VALID,72,VALID,0,
2008-07-08, 03:45:05,VALID,1008.35,VALID,0,VALID,94.6356,VALID,0.105969,VALID,23.2441,VALID,72,VALID,0,
2008-07-08, 03:46:05,VALID,1008.36,VALID,0,VALID,94.6585,VALID,0.105969,VALID,23.2441,VALID,72,VALID,0,